User: anonymous   Login
Location: Clatteringshaws Loch
(55.0508°N, 4.2860°W)
Time: 14:04:45
(UTC+01:00)
Language:

Cosmos 2221 Rocket - Orbit

View from above orbital plane
View from above orbital plane
View from above satellite
View from above satellite

Ground track
Ground track

The orbit data is extracted from the following two-line orbital elements,

1 22237U 92080B   15115.15999271  .00000465  00000-0  61111-4 0  9990
2 22237 082.5098 126.9687 0018334 247.2487 157.0402 14.78115940207617
Epoch (UTC): 25 April 2015 03:50:23
Eccentricity: 0.0018334
inclination: 82.5098°
perigee height: 622 km
apogee height: 648 km
right ascension of ascending node: 126.9687°
argument of perigee: 247.2487°
revolutions per day: 14.78115940
mean anomaly at epoch: 157.0402°
orbit number at epoch: 20761

The dashed part of the orbit path shows where the satellite is in the earth's shadow,  

DLR